User: anonymous   Login
Location: ??????
(56.0120°N, 39.1740°E)
Time: 17:26:28
(UTC+00:00)
Language:

COSMOS 2455 - Orbit

View from above orbital plane
View from above orbital plane
View from above satellite
View from above satellite

Ground track
Ground track

The orbit is defined by the following mean orbital elements,

1 36095U          26157.04890583 +.00000000 +00000-0 +50675-4 0 00001
2 36095  67.1486 279.9866 0003458 259.1529 100.9167 13.97049739    03
Epoch (UTC): 06 June 2026 01:10:25
Eccentricity: 0.0003458
inclination: 67.1486°
perigee height: 902 km
apogee height: 907 km
right ascension of ascending node: 279.9866°
argument of perigee: 259.1529°
revolutions per day: 13.97049739
mean anomaly at epoch: 100.9167°

The dashed part of the orbit path shows where the satellite is in the earth's shadow,  

DLR